Temp
80 83 81 82 82 83 83 83 83 83 83 83 83 83 83 83 83 83 83 83 84 84 84 84 84 84 84 84 83 83 83 83 83 83 83 83 83 83 83 83 83 90 82
87 86 82 83 83 83 83 83 83 83 83 83 83 83 84 84 84 84 84 84 84 84 84 84 84 84 84 84 84 84 83 83 83 84 84 84 83 83 83 83 84 86 82
91 90 89 82 82 82 83 83 83 83 83 83 84 84 84 84 84 84 84 84 84 84 84 84 84 84 84 84 84 84 84 83 83 84 85 87 89 83 83 83 82 82 82
92 92 92 81 82 82 83 83 83 84 84 84 84 84 84 84 84 84 84 84 84 84 84 84 84 84 84 84 84 83 83 83 83 84 87 96 93 83 83 82 82 82 82
88 89 88 82 83 83 83 83 84 84 84 84 84 84 84 84 84 84 84 84 84 84 84 84 84 84 84 84 83 83 83 83 84 85 93 92 91 85 83 82 82 82 82
93 92 85 83 83 83 84 84 84 84 84 84 84 84 84 85 85 85 84 85 85 84 85 85 84 84 84 84 83 83 83 84 83 85 87 91 89 83 83 83 83 82 82
92 92 90 83 83 83 83 84 84 84 84 84 84 84 85 85 85 85 85 85 85 85 85 85 85 84 84 84 84 83 84 84 85 90 90 93 87 83 83 83 82 82 82
94 96 90 84 83 84 84 84 84 84 84 84 84 84 84 85 85 85 85 85 85 85 85 85 85 84 84 84 84 84 84 84 88 86 89 88 82 83 83 83 83 82 82
97 96 92 91 87 84 84 84 84 84 84 84 84 84 84 84 84 85 85 85 85 85 85 85 85 84 84 84 84 84 84 85 91 86 90 84 81 83 83 83 83 82 82
96 94 91 91 91 90 89 85 85 84 84 84 84 84 84 85 85 85 85 84 84 85 85 85 85 84 84 84 84 84 84 85 93 94 88 86 81 83 83 83 82 82 82
94 93 94 91 90 92 92 89 85 85 85 84 85 85 86 91 89 91 86 85 84 84 85 85 85 85 85 84 85 85 85 82 94 87 92 80 81 83 83 83 82 82 82
90 92 93 93 95 94 97 89 90 92 92 92 92 89 92 95 94 92 90 86 85 85 86 85 85 86 85 88 90 86 90 95 95 92 87 80 81 83 84 83 82 82 82
92 94 100 96 95 96 91 94 95 96 96 95 93 92 94 95 94 96 93 87 85 83 87 89 89 94 87 92 87 94 96 97 99 80 87 81 82 82 83 83 82 82 82
93 96 98 96 93 94 96 96 98 98 97 97 95 91 91 92 93 92 95 84 90 94 91 89 88 92 92 89 88 90 95 96 96 97 86 82 83 83 83 83 82 83 82
94 96 96 95 92 92 92 96 97 97 97 98 97 94 94 94 93 93 93 92 89 87 85 90 86 88 90 90 87 89 93 92 95 96 91 82 82 82 83 83 83 83 82
94 95 96 95 92 92 91 91 93 95 96 97 97 96 91 92 92 94 84 85 84 92 87 91 83 84 86 87 85 85 89 93 92 92 96 90 82 83 82 83 83 83 83
95 96 95 94 94 91 90 91 92 95 96 94 90 95 93 90 89 88 89 91 89 87 90 88 87 89 90 91 92 94 94 93 94 92 93 94 90 82 83 83 83 82 83
96 94 95 98 96 92 91 92 94 95 86 91 96 86 92 90 88 87 90 84 85 89 86 89 87 83 92 92 91 92 92 92 93 92 92 94 95 96 84 82 83 82 83
96 94 94 95 96 93 91 92 93 94 92 96 88 92 93 92 91 89 91 89 90 89 86 89 80 90 89 90 92 93 93 92 93 97 92 92 94 94 95 82 82 83 83
97 95 93 94 93 92 92 89 92 88 92 96 94 91 88 91 90 90 92 90 89 88 89 82 85 89 87 88 91 91 91 92 93 94 93 97 93 95 93 91 87 86 83
97 94 92 90 90 91 90 89 88 90 91 93 94 92 90 90 88 87 87 87 88 88 87 87 87 86 87 89 85 89 90 89 90 87 92 93 91 94 92 92 86 85 80
95 93 91 90 90 89 90 89 94 94 96 96 93 90 91 90 90 90 89 87 87 91 87 86 84 84 88 88 83 85 83 85 86 92 90 91 89 93 92 89 87 85 84
94 93 91 90 90 90 90 91 91 92 93 93 94 93 91 91 92 89 88 89 88 87 90 85 85 83 84 87 84 82 81 77 82 87 86 88 86 90 90 87 86 85 85
96 95 93 91 89 90 89 90 88 90 89 93 94 96 95 92 92 91 90 89 87 89 86 86 87 83 82 84 87 86 84 81 80 79 83 86 87 87 85 89 87 85 86
98 97 95 91 89 90 89 88 91 88 93 95 95 90 89 89 91 91 90 88 86 88 86 85 84 82 85 84 86 86 83 85 83 81 80 81 87 88 88 87 88 89 86
100 98 96 91 88 89 89 88 87 89 88 92 91 90 90 92 90 89 90 87 86 87 86 86 84 83 82 82 84 83 84 83 83 82 81 82 82 85 88 89 87 88 88
MSLP
1013.76 1013.80 1013.90 1013.93 1014.19 1014.27 1014.53 1014.74 1014.75 1014.94 1015.18 1015.36 1015.51 1015.62 1015.88 1016.01 1016.27 1016.41 1016.49 1016.54 1016.66 1016.75 1016.70 1016.75 1016.72 1016.67 1016.64 1016.60 1016.56 1016.65 1016.79 1016.90 1017.04 1016.96 1016.88 1016.89 1017.00 1017.17 1017.22 1017.34 1017.28 1016.67 1017.61
1013.46 1013.93 1014.26 1014.31 1014.50 1014.60 1014.89 1015.04 1015.21 1015.25 1015.60 1015.79 1015.90 1016.02 1016.29 1016.39 1016.59 1016.70 1016.80 1016.79 1016.90 1016.90 1016.89 1016.86 1016.91 1016.79 1016.86 1016.89 1016.88 1016.96 1017.07 1017.15 1017.16 1016.90 1016.96 1017.01 1017.12 1017.27 1017.35 1017.47 1017.21 1017.42 1017.84
1012.90 1013.75 1014.10 1014.58 1014.74 1015.01 1015.19 1015.29 1015.52 1015.62 1015.88 1016.08 1016.25 1016.38 1016.46 1016.63 1016.79 1016.96 1016.97 1017.08 1017.03 1017.01 1017.04 1017.02 1017.04 1016.99 1017.02 1017.08 1017.04 1017.11 1017.22 1017.31 1017.15 1016.71 1016.80 1016.66 1016.75 1017.35 1017.44 1017.68 1017.76 1017.89 1018.13
1012.58 1013.16 1013.93 1014.92 1015.15 1015.32 1015.44 1015.53 1015.74 1015.85 1016.11 1016.40 1016.57 1016.62 1016.68 1016.88 1017.05 1017.11 1017.21 1017.28 1017.21 1017.22 1017.20 1017.18 1017.19 1017.18 1017.22 1017.23 1017.20 1017.27 1017.32 1017.31 1017.17 1016.81 1016.40 1015.35 1016.20 1017.50 1017.76 1017.94 1018.00 1018.10 1018.33
1013.04 1013.50 1014.62 1015.16 1015.38 1015.46 1015.66 1015.73 1015.91 1016.12 1016.42 1016.65 1016.77 1016.82 1016.96 1017.14 1017.28 1017.39 1017.37 1017.43 1017.36 1017.41 1017.37 1017.28 1017.25 1017.27 1017.32 1017.36 1017.35 1017.41 1017.50 1017.47 1017.25 1016.66 1015.86 1016.12 1016.36 1017.66 1017.99 1018.18 1018.34 1018.35 1018.58
1013.02 1013.54 1015.02 1015.34 1015.52 1015.70 1015.88 1015.99 1016.22 1016.38 1016.69 1016.89 1017.02 1017.07 1017.27 1017.40 1017.55 1017.50 1017.60 1017.52 1017.51 1017.52 1017.44 1017.37 1017.34 1017.33 1017.37 1017.42 1017.44 1017.51 1017.46 1017.42 1017.12 1016.57 1016.36 1016.66 1017.18 1017.88 1018.19 1018.25 1018.47 1018.66 1018.75
1013.01 1013.72 1014.80 1015.46 1015.69 1015.95 1016.14 1016.28 1016.49 1016.77 1017.02 1017.16 1017.27 1017.39 1017.53 1017.60 1017.58 1017.63 1017.62 1017.56 1017.57 1017.54 1017.45 1017.49 1017.44 1017.40 1017.39 1017.50 1017.53 1017.52 1017.52 1017.36 1017.06 1016.50 1016.22 1016.25 1017.57 1018.04 1018.30 1018.54 1018.64 1018.88 1019.00
1012.81 1013.16 1014.79 1015.63 1015.91 1016.16 1016.36 1016.59 1016.82 1017.03 1017.21 1017.33 1017.43 1017.55 1017.66 1017.64 1017.66 1017.70 1017.66 1017.63 1017.62 1017.53 1017.52 1017.56 1017.50 1017.39 1017.42 1017.50 1017.55 1017.54 1017.40 1017.21 1016.89 1016.80 1016.72 1017.00 1017.90 1018.14 1018.36 1018.66 1018.75 1018.93 1019.13
1012.55 1013.04 1014.39 1015.04 1015.84 1016.28 1016.54 1016.81 1017.05 1017.28 1017.41 1017.49 1017.58 1017.71 1017.72 1017.66 1017.66 1017.59 1017.60 1017.65 1017.65 1017.60 1017.60 1017.57 1017.50 1017.45 1017.47 1017.48 1017.45 1017.43 1017.15 1016.89 1016.54 1016.65 1016.80 1017.44 1018.10 1018.28 1018.44 1018.61 1018.77 1018.97 1019.14
1013.11 1013.46 1014.16 1014.73 1015.32 1015.80 1016.46 1016.96 1017.25 1017.40 1017.48 1017.57 1017.66 1017.67 1017.63 1017.50 1017.36 1017.38 1017.45 1017.60 1017.58 1017.56 1017.56 1017.53 1017.45 1017.44 1017.39 1017.35 1017.28 1017.07 1016.80 1016.63 1016.13 1015.71 1016.70 1017.48 1017.95 1018.31 1018.50 1018.76 1018.84 1018.98 1019.18
1012.63 1013.68 1014.12 1014.60 1015.31 1015.28 1015.81 1016.70 1017.23 1017.36 1017.47 1017.57 1017.57 1017.61 1017.46 1016.67 1016.78 1016.72 1017.14 1017.31 1017.46 1017.48 1017.43 1017.42 1017.45 1017.32 1017.24 1017.23 1017.11 1016.58 1016.55 1016.40 1015.44 1016.06 1016.19 1017.31 1017.80 1018.11 1018.35 1018.83 1019.07 1019.12 1019.24
1012.84 1013.30 1013.40 1013.99 1014.31 1014.87 1014.85 1016.37 1016.46 1016.57 1016.70 1016.76 1016.68 1017.06 1016.82 1015.90 1016.24 1016.62 1016.71 1017.08 1017.28 1017.25 1017.22 1017.22 1017.08 1017.08 1017.18 1016.79 1016.47 1016.29 1015.74 1015.29 1014.84 1015.36 1016.55 1017.19 1017.53 1017.98 1018.18 1018.57 1019.02 1019.22 1019.36
1012.88 1013.11 1012.47 1013.36 1014.17 1014.32 1014.57 1015.40 1015.38 1015.46 1015.53 1015.83 1016.20 1016.48 1016.17 1015.99 1016.18 1015.96 1016.04 1016.35 1016.66 1016.98 1016.75 1016.82 1016.75 1016.39 1016.52 1016.12 1016.05 1015.75 1015.29 1015.14 1014.37 1016.25 1016.14 1016.78 1017.31 1017.88 1018.06 1018.30 1018.74 1018.99 1019.39
1012.10 1012.11 1012.44 1013.24 1014.11 1014.27 1014.33 1014.67 1014.50 1014.54 1014.96 1015.17 1015.67 1016.59 1016.61 1016.47 1016.20 1016.34 1015.85 1016.55 1016.62 1016.10 1016.30 1016.40 1016.31 1016.35 1016.29 1016.46 1016.56 1016.24 1015.50 1015.38 1015.15 1015.14 1016.36 1016.72 1017.15 1017.67 1018.03 1018.20 1018.46 1018.66 1019.03
1011.73 1012.04 1012.61 1013.47 1014.27 1014.57 1014.66 1014.38 1014.27 1014.39 1014.86 1014.85 1015.19 1015.84 1016.24 1015.85 1015.86 1016.35 1016.14 1016.29 1016.54 1016.49 1016.36 1016.19 1016.37 1016.40 1016.29 1016.30 1016.51 1016.26 1015.67 1015.59 1015.66 1015.61 1015.73 1016.53 1016.89 1017.37 1017.71 1018.08 1018.33 1018.56 1018.75
1011.49 1011.92 1012.55 1013.30 1014.07 1014.53 1014.82 1014.92 1014.83 1014.78 1014.53 1014.95 1014.82 1015.10 1016.15 1016.29 1015.93 1015.85 1016.58 1016.54 1016.60 1015.96 1016.42 1016.40 1016.89 1016.82 1016.70 1016.50 1016.49 1016.48 1016.19 1015.90 1015.87 1016.11 1015.64 1016.20 1016.60 1017.05 1017.39 1017.66 1018.05 1018.32 1018.46
1011.25 1011.70 1012.29 1013.07 1013.53 1014.38 1014.74 1015.00 1015.17 1014.65 1014.80 1014.60 1014.88 1015.11 1015.71 1016.24 1016.62 1016.58 1016.46 1016.31 1015.91 1016.12 1016.45 1016.85 1017.01 1016.56 1016.22 1015.95 1015.58 1015.32 1015.53 1015.59 1015.54 1015.86 1016.00 1015.79 1015.94 1016.62 1016.90 1017.23 1017.59 1017.88 1018.15
1010.65 1011.34 1012.15 1012.43 1012.90 1013.90 1014.33 1014.46 1014.46 1014.33 1014.81 1014.61 1014.55 1015.14 1015.48 1016.00 1016.59 1016.69 1016.22 1016.36 1015.92 1015.95 1016.26 1016.30 1016.61 1016.16 1015.64 1015.56 1015.83 1015.80 1015.69 1015.63 1015.52 1015.65 1015.63 1015.68 1015.25 1015.12 1016.44 1016.88 1017.24 1017.58 1017.65
1010.33 1011.01 1011.70 1012.15 1012.39 1013.16 1013.92 1014.07 1014.28 1014.13 1014.52 1014.39 1014.88 1014.69 1015.16 1015.66 1015.81 1016.15 1015.52 1015.46 1015.79 1016.10 1016.71 1016.49 1016.51 1015.96 1016.04 1015.96 1015.56 1015.15 1015.35 1015.43 1015.20 1014.75 1015.43 1015.61 1015.37 1015.65 1015.27 1016.55 1016.86 1017.11 1017.36
1009.78 1010.67 1011.50 1011.96 1012.43 1012.94 1013.44 1014.13 1014.18 1014.81 1014.58 1014.02 1014.10 1014.51 1014.85 1015.30 1015.33 1015.59 1015.47 1015.80 1016.24 1016.36 1016.22 1016.48 1016.54 1016.48 1016.57 1016.18 1015.73 1015.29 1015.47 1015.42 1015.29 1015.03 1015.39 1014.83 1015.36 1015.24 1015.46 1015.86 1016.49 1016.77 1017.16
1009.25 1010.23 1011.09 1011.78 1012.31 1012.85 1013.42 1013.80 1014.02 1013.72 1013.74 1013.94 1013.84 1014.36 1014.87 1015.11 1015.61 1015.89 1015.70 1015.76 1016.23 1016.09 1015.98 1016.43 1016.51 1016.32 1016.24 1015.86 1016.12 1015.00 1015.08 1015.69 1015.52 1015.31 1015.16 1015.36 1015.83 1015.42 1015.90 1016.10 1016.32 1016.33 1017.03
1008.66 1009.48 1010.51 1011.29 1011.89 1012.60 1012.92 1013.36 1012.71 1012.72 1012.61 1012.76 1013.13 1013.89 1014.28 1014.80 1014.96 1015.15 1015.40 1015.52 1015.72 1015.45 1016.08 1016.62 1016.90 1016.62 1015.93 1016.12 1016.13 1015.51 1014.56 1014.94 1015.17 1015.14 1015.89 1016.15 1016.37 1015.77 1015.95 1016.70 1016.81 1017.02 1016.98
1007.81 1008.76 1009.66 1010.58 1011.28 1011.96 1012.31 1012.74 1012.93 1012.91 1012.88 1012.83 1012.98 1013.32 1013.90 1014.42 1014.50 1015.16 1015.44 1015.35 1015.69 1016.10 1015.74 1016.62 1016.77 1016.85 1016.16 1016.04 1016.67 1016.14 1015.01 1014.85 1015.20 1015.25 1016.00 1016.36 1016.88 1016.45 1016.36 1017.16 1017.46 1017.64 1017.40
1006.86 1008.02 1008.92 1009.93 1010.75 1011.44 1012.01 1011.93 1012.04 1012.25 1012.28 1012.24 1012.56 1012.49 1013.16 1013.88 1014.11 1014.50 1014.92 1015.30 1015.81 1015.85 1015.95 1016.38 1016.57 1017.00 1016.95 1016.04 1016.14 1016.49 1016.66 1016.50 1015.49 1015.17 1015.46 1016.18 1016.62 1016.60 1017.03 1016.63 1017.27 1017.75 1017.65
1005.98 1006.96 1008.05 1009.14 1010.05 1010.65 1011.21 1011.72 1011.65 1012.09 1011.77 1011.94 1012.28 1012.86 1013.66 1014.05 1014.24 1014.48 1014.85 1015.34 1016.04 1016.13 1016.28 1016.58 1016.82 1017.11 1016.81 1016.81 1016.15 1016.00 1016.58 1016.40 1016.60 1016.21 1015.35 1015.62 1015.76 1016.34 1016.82 1017.11 1017.04 1017.00 1017.70
1004.89 1005.90 1006.91 1008.11 1009.17 1010.03 1010.54 1011.18 1011.51 1011.37 1011.78 1011.72 1012.16 1012.74 1013.24 1013.50 1014.18 1014.46 1014.76 1015.48 1015.88 1016.12 1016.37 1016.60 1016.92 1017.13 1017.18 1017.16 1016.87 1016.79 1016.28 1016.02 1015.82 1015.99 1015.86 1015.67 1015.64 1015.83 1016.03 1016.39 1016.74 1017.02 1017.17
Wind_Speed
12 15 16 18 17 17 15 14 14 14 14 14 15 15 15 15 14 13 14 14 14 13 13 12 13 13 12 11 11 10 9 7 7 7 8 10 10 7 4 5 5 10 11
17 16 15 15 16 15 13 12 11 13 13 13 13 14 14 14 13 13 13 14 12 13 12 12 11 12 11 11 10 8 7 6 5 3 6 10 11 7 7 8 9 14 12
19 16 15 13 12 12 11 12 12 13 13 13 13 13 14 13 13 12 12 11 12 11 11 11 11 11 10 10 10 8 6 4 0 6 7 8 12 8 7 8 12 13 11
17 15 14 10 12 12 12 13 13 13 13 12 11 11 12 12 11 11 11 10 11 10 9 10 10 9 9 8 9 8 5 2 2 8 9 4 13 10 6 8 10 11 11
11 12 14 11 12 13 12 13 13 13 12 11 10 11 10 10 9 9 9 9 9 8 8 9 8 8 7 7 7 6 4 2 2 9 6 6 10 11 9 9 10 10 7
13 14 13 13 13 13 12 12 12 12 11 10 9 10 9 8 8 9 7 8 7 7 7 8 7 7 7 6 5 4 3 2 3 7 7 5 12 12 8 8 10 10 11
14 16 14 13 13 13 12 12 12 11 10 9 8 8 7 6 7 6 6 6 6 6 6 7 7 8 7 6 5 4 4 4 5 4 4 10 11 10 9 7 9 10 9
15 17 15 13 13 13 12 12 11 10 9 8 7 6 5 5 5 5 4 4 4 5 5 6 7 7 7 5 4 4 5 6 2 2 0 10 13 11 9 10 9 8 9
15 16 14 14 13 11 12 11 10 9 8 7 6 5 4 4 3 2 2 2 2 4 5 6 6 5 5 4 3 2 6 8 5 5 3 6 11 10 9 9 9 9 10
15 11 10 13 12 12 12 12 10 8 8 6 6 6 6 7 7 7 5 2 3 3 3 3 3 3 4 2 1 5 9 12 6 3 6 7 12 9 9 8 9 11 10
16 14 14 12 11 11 12 11 10 8 7 7 8 7 9 8 11 9 7 4 3 4 4 2 2 6 6 7 8 11 10 3 4 3 6 13 12 10 10 8 8 9 10
11 8 12 13 14 12 11 11 10 9 9 9 9 9 7 3 5 6 1 5 6 7 7 6 9 9 9 6 4 13 6 4 1 7 5 13 13 11 9 12 10 9 9
16 14 15 15 13 11 10 9 7 7 7 7 5 4 6 3 5 6 0 1 4 9 4 9 7 5 6 4 2 7 7 6 3 5 13 15 13 11 11 11 11 10 10
17 14 13 12 11 10 7 7 8 7 6 4 9 7 5 4 5 4 3 2 3 3 3 3 2 4 6 2 6 7 7 4 6 5 8 13 11 9 11 11 12 12 12
15 14 12 13 11 9 6 7 6 5 5 7 5 9 7 6 4 3 2 5 3 2 4 4 4 1 4 5 4 7 7 6 3 5 4 13 12 10 11 12 13 13 13
15 15 14 14 13 11 9 6 5 5 4 6 6 5 8 7 5 4 3 3 5 3 5 5 6 7 4 3 5 5 8 5 5 6 7 6 13 12 12 12 12 13 13
15 15 14 14 14 12 11 10 8 8 9 6 5 5 5 3 6 7 4 6 4 1 1 2 5 8 6 9 8 4 5 7 4 5 5 7 9 13 13 14 12 11 11
16 15 15 14 16 14 11 9 8 8 3 4 5 2 7 6 7 7 7 5 3 3 3 2 6 5 5 7 6 5 5 5 5 4 6 4 4 3 12 13 13 12 13
16 15 15 14 14 15 12 10 10 8 6 6 3 6 5 6 8 9 8 2 4 5 3 6 6 3 4 6 6 4 1 4 4 4 1 1 3 4 0 12 12 12 11
17 15 14 13 12 10 8 6 6 3 8 8 7 6 6 6 6 6 7 3 4 4 6 3 5 6 7 5 7 5 2 3 3 2 5 3 7 3 5 6 8 8 8
16 17 16 13 12 9 9 9 10 11 11 7 6 6 6 7 9 5 8 6 6 5 1 4 4 6 5 4 6 5 5 7 3 3 3 5 3 2 7 3 4 3 6
18 17 16 15 13 12 10 10 7 7 8 9 9 4 6 6 9 5 5 6 6 3 2 1 3 6 3 3 6 4 4 6 3 6 4 3 5 2 5 3 5 6 4
20 19 17 16 14 13 13 10 7 7 5 5 5 7 9 10 9 6 7 5 5 2 2 3 4 2 7 2 2 6 3 4 5 5 6 6 4 4 4 5 4 3 2
21 20 17 16 15 14 13 12 12 9 10 9 8 4 4 4 7 7 4 5 2 5 5 4 3 5 1 4 1 3 5 6 6 2 4 7 6 5 3 2 5 2 2
21 20 19 17 16 15 15 14 10 12 8 6 5 6 4 7 5 7 7 5 4 6 5 1 1 2 1 5 2 2 3 3 2 6 5 6 5 4 4 3 4 2 2
21 20 19 19 17 17 15 16 13 10 11 7 8 7 7 7 8 8 7 6 5 5 2 3 2 2 3 5 7 3 4 3 1 3 5 4 0 4 4 3 4 3 3
Wind_Direction
114 120 116 115 114 110 105 97 92 97 97 98 97 95 89 89 90 88 87 86 86 83 80 76 70 65 59 57 60 63 71 71 87 101 115 113 102 90 68 62 322 109 108
124 115 111 111 113 109 108 106 105 106 102 100 96 93 90 92 90 85 87 87 87 83 77 70 64 63 57 54 56 64 69 76 90 163 148 120 101 86 72 64 38 101 111
127 126 117 108 110 114 114 114 116 112 108 101 98 95 93 92 89 88 85 87 82 78 72 64 58 56 55 51 53 55 63 72 93 264 231 208 98 81 84 79 86 101 116
132 130 127 118 122 121 118 117 123 117 110 109 104 101 95 90 91 88 89 85 78 73 68 60 52 48 43 44 50 44 46 73 240 274 259 87 94 91 110 108 106 115 119
120 113 113 130 128 126 124 126 127 124 123 117 108 103 99 96 93 94 88 85 78 70 61 53 37 32 35 36 43 49 37 40 245 270 68 354 91 100 119 134 135 123 158
136 126 129 134 134 134 132 132 134 128 127 124 112 105 103 100 102 91 87 76 71 64 51 38 24 13 21 26 32 32 26 308 259 264 103 106 73 110 125 106 103 110 117
134 125 133 137 138 141 141 135 129 129 131 126 117 113 113 113 102 100 87 69 56 46 36 21 6 6 9 19 23 10 330 299 255 177 301 102 108 123 125 127 120 116 121
147 135 136 138 144 148 140 131 129 131 133 134 134 135 142 125 120 112 90 58 33 23 8 356 0 3 1 7 16 6 320 298 119 214 306 85 123 130 144 135 128 136 136
113 125 135 139 136 144 143 143 140 141 146 145 152 159 158 157 155 146 108 68 29 6 350 342 352 359 349 350 1 337 278 273 278 134 57 128 130 145 149 147 147 135 137
140 126 144 141 151 154 157 154 159 159 161 169 180 184 194 203 196 209 201 131 335 329 324 338 332 320 295 249 221 254 254 259 248 190 143 120 140 160 167 162 152 150 149
142 149 177 160 149 161 152 151 168 173 180 190 197 204 220 229 204 171 112 99 346 279 277 277 257 249 248 240 235 244 257 320 205 260 134 140 153 169 162 172 177 165 163
125 181 151 147 165 160 167 147 183 175 192 200 197 171 229 297 12 342 283 186 226 231 220 220 212 241 248 252 212 243 249 305 143 139 119 156 159 180 187 173 182 186 186
164 198 161 159 154 182 121 162 193 182 203 187 219 246 247 333 211 217 166 183 208 219 154 222 215 240 256 288 275 322 344 286 281 170 138 146 155 189 197 188 189 185 195
174 195 161 155 164 199 162 193 195 194 202 216 185 198 262 214 226 244 283 89 295 317 342 354 124 334 312 48 313 311 311 305 338 356 131 133 145 185 208 201 196 196 201
180 185 173 165 171 198 229 193 243 223 186 215 195 173 257 251 232 261 300 297 216 297 252 302 330 313 256 304 282 321 306 335 337 294 127 148 150 179 200 208 204 208 206
184 183 177 179 178 198 207 248 240 255 237 222 243 204 181 271 299 283 221 240 259 269 2 324 4 339 313 348 304 211 293 300 330 317 299 151 161 171 196 205 211 211 215
185 182 189 190 185 193 207 202 224 233 220 247 230 196 229 164 260 288 301 289 307 21 272 296 268 241 257 232 246 300 308 266 292 310 297 285 158 181 184 193 201 212 225
192 189 194 195 186 187 207 207 227 226 241 272 243 137 206 199 237 259 245 252 224 304 322 321 255 281 311 360 319 286 312 308 276 270 233 251 273 174 189 187 192 203 214
196 187 193 203 202 185 197 213 218 230 228 229 204 251 234 257 224 243 261 275 354 340 323 255 280 324 326 294 285 251 290 269 289 27 340 244 204 231 237 169 181 195 209
188 195 198 198 211 191 197 212 231 253 253 240 229 176 201 225 266 222 272 298 274 256 233 287 9 335 317 270 312 336 315 334 302 59 87 239 76 328 40 148 187 173 172
194 189 192 205 185 202 194 198 212 206 209 232 270 245 249 211 232 210 244 179 241 262 83 348 310 262 289 72 283 249 162 200 199 339 56 13 64 23 79 42 276 125 129
195 187 189 195 196 198 185 221 237 215 223 208 189 201 215 242 229 227 260 217 193 346 149 6 288 317 269 102 302 288 241 164 198 108 46 25 346 16 94 100 59 9 73
197 196 186 191 192 200 229 196 203 261 263 262 227 207 200 210 215 198 200 280 119 309 214 156 210 293 305 3 30 314 285 67 195 131 164 83 317 24 22 106 46 51 0
199 195 195 189 197 196 202 235 203 205 224 214 223 198 154 193 209 178 201 196 145 292 78 175 207 307 269 316 112 162 349 0 335 153 143 142 183 170 354 159 140 115 305
202 197 195 191 194 207 192 223 206 221 217 235 212 129 227 156 202 198 188 153 192 241 135 334 180 228 300 312 300 12 90 269 118 316 320 146 173 156 178 240 14 307 176
203 202 198 187 193 196 203 196 231 206 233 219 201 166 187 189 185 207 176 184 191 237 167 219 198 209 302 344 334 5 292 331 351 321 299 290 314 266 184 279 192 252 285